{"data":{"norad_id":58846,"intl_designator":"2024-017W","name":"STARLINK-31273","alt_names":[],"object_type":"PAYLOAD","status":"ACTIVE","operator":null,"country":"US","launch_date":"2024-01-24","launch_site_code":"AFWTR","launch_vehicle":null,"mission":null,"orbit_class":"UNKNOWN","rcs_meters":null,"size_class":null,"mass_kg":null,"dimensions":null,"purposes":["comms"],"wikipedia_slug":null,"has_3d_model":false,"image_url":null,"decayed_at":null,"tle_current":{"epoch":"2026-09-20T20:05:29.580288Z","epoch_age_seconds":123439,"freshness":"FRESH","line1":"1 58846U 24017W   26263.83714792  .00015375  00000+0  46500-3 0  9993","line2":"2 58846  53.1603  15.7887 0001073  80.6952 279.4172 15.34416714149965","mean_motion":15.34416714,"eccentricity":0.0001073,"inclination_deg":53.1603,"raan_deg":15.7887,"arg_perigee_deg":80.6952,"mean_anomaly_deg":279.4172,"bstar":0.000465,"rev_number":14996,"period_min":93.846735822248,"perigee_km":461.9195463003,"apogee_km":463.38757995515,"semimajor_km":6840.7905631277,"source":"CELESTRAK","updated_at":"2026-09-21T09:00:33.986477Z"}}}